This demonstration page uses our WeatherBlox Daily Observations layout. Learn more.

Left ArrowRight Arrow

39.92423, -83.80882

Hourly Observations for January 19, 2017

Temp ( °F °C ) Dew Point ( °F °C ) Humidity (%) Winds ( mph kmh ) Pressure ( in mb ) Visibility ( mi km ) Precip ( " mm )
12:56 am 00:56 Cloudy 37 2.8 36 2.2 96 96 WSW 8 13 30.14 1021 7 11.26538 0 0
1:56 am 01:56 Cloudy with Mist and Fog 37 2.8 37 2.8 100 100 SW 6 9 30.13 1020 5 8.0467 0 0
2:56 am 02:56 Cloudy 37 2.8 36 2.2 96 96 SSW 6 9 30.14 1021 8 12.87472 0 0
3:56 am 03:56 Cloudy 37 2.8 36 2.2 96 96 SW 8 13 30.15 1021 9 14.48406 0 0
4:56 am 04:56 Cloudy 37 2.8 35 1.7 93 93 WSW 5 7 30.13 1020 10 16.0934 0 0
5:16 am 05:16 Cloudy 37 3 36 2 93 93 S 3 6 30.15 1021 10 16.0934 0 0
5:56 am 05:56 Cloudy 37 2.8 35 1.7 93 93 Calm 30.12 1020 10 16.0934 0 0
6:56 am 06:56 Cloudy 37 2.8 35 1.7 93 93 Calm 30.12 1020 10 16.0934 0 0
7:56 am 07:56 Cloudy 37 2.8 35 1.7 93 93 S 5 7 30.1 1019 10 16.0934 0 0
8:56 am 08:56 Cloudy 37 2.8 35 1.7 93 93 S 7 11 30.09 1019 10 16.0934 0 0
9:56 am 09:56 Cloudy 38 3.3 35 1.7 89 89 Calm 30.11 1020 10 16.0934 0 0
10:56 am 10:56 Cloudy 38 3.3 36 2.2 93 93 ESE 8 13 30.08 1019 10 16.0934 0 0
11:56 am 11:56 Mostly Cloudy 40 4.4 37 2.8 89 89 ESE 9 15 30.05 1018 10 16.0934 0 0
1:52 pm 13:52 Partly Cloudy 43 6 37 3 81 81 ESE 9 15 30.03 1017 10 16.0934 0 0
1:56 pm 13:56 Mostly Sunny 43 6.1 39 3.9 86 86 ESE 7 11 30.02 1017 10 16.0934 0 0
2:56 pm 14:56 Sunny 44 6.7 39 3.9 83 83 E 14 22 29.95 1014 10 16.0934 0 0
3:56 pm 15:56 Mostly Sunny 44 6.7 39 3.9 83 83 ESE 12 19 29.96 1015 10 16.0934 0 0
4:56 pm 16:56 Sunny 44 6.7 39 3.9 83 83 ESE 9 15 29.96 1015 10 16.0934 0 0
5:56 pm 17:56 Partly Cloudy 42 5.6 39 3.9 89 89 E 10 17 29.94 1014 10 16.0934 0 0
6:56 pm 18:56 Clear 41 5 39 3.9 93 93 E 12 19 29.93 1014 10 16.0934 0 0
7:56 pm 19:56 Mostly Clear 41 5 38 3.3 89 89 E 12 19 29.91 1013 10 16.0934 0 0
8:56 pm 20:56 Mostly Clear 41 5 38 3.3 89 89 E 15 24 29.88 1012 10 16.0934 0 0
9:56 pm 21:56 Cloudy 41 5 38 3.3 89 89 ESE 15 24 29.86 1011 10 16.0934 0 0
10:56 pm 22:56 Mostly Cloudy 41 5 38 3.3 89 89 E 13 20 29.83 1010 10 16.0934 0 0
11:28 pm 23:28 Cloudy 41 5 37 3 87 87 E 15 24 29.83 1010 10 16.0934 0 0
11:56 pm 23:56 Cloudy with Rain 41 5 39 3.9 93 93 ESE 14 22 29.8 1009 6 9.65604 0.001 0.001

Powered by AerisWeather